Location: Tamazert
(32.6352°N, 5.2072°W)
Time: 04:31:18
(UTC+00:00)

Vanguard 2 - Pass Details

Date: 03 October 2022
Orbit: 553 x 2933 km, 32.9° (Epoch: 04 December)

Event Time Altitude Azimuth Distance (km) Brightness Sun altitude
Rises 19:18:46 0° 286° (WNW) 6,478 13.9 -16.8°
Reaches altitude 10° 19:23:06 10° 281° (W) 5,621 13.2 -17.7°
Maximum altitude 19:39:24 47° 215° (SW) 3,516 10.9 -21.1°
Enters shadow 19:53:54 10° 148° (SSE) 5,011 11.3 -24.1°
Drops below altitude 10° 19:53:54 10° 148° (SSE) 5,011 11.3 -24.1°
Sets 19:57:32 0° 142° (SE) 5,749 - -24.8°
